This is the latest recevied weather packets stored in our database for station/object KY4GW. If no packets are shown the sender has not sent any weather packets the latest 10 day(s).
| Time | Temp. | Humidity | Pressure | Rain* | Wind** | Luminosity | Snow |
|---|---|---|---|---|---|---|---|
| 1777502554 | 17.78° C | 67% | 1014.4 hPa | 0 mm | - | 75 W/m² | - |
| 1777502252 | 18.33° C | 65% | 1014.4 hPa | 0 mm | - | 92 W/m² | - |
| 1777501948 | 17.78° C | 67% | 1014.4 hPa | 0 mm | - | 76 W/m² | - |
| 1777501646 | 17.78° C | 72% | 1014.4 hPa | 0 mm | - | 108 W/m² | - |
| 1777501342 | 18.33° C | 70% | 1014.4 hPa | 0 mm | - | 82 W/m² | - |
| 1777501040 | 18.33° C | 67% | 1014.4 hPa | 0 mm | - | 85 W/m² | - |
| 1777500738 | 17.78° C | 65% | 1014.4 hPa | 0 mm | - | 65 W/m² | - |
| 1777500435 | 17.78° C | 68% | 1014.4 hPa | 0 mm | - | 77 W/m² | - |
| 1777500130 | 17.78° C | 65% | 1014.4 hPa | 0 mm | - | 82 W/m² | - |
| 1777499828 | 17.78° C | 67% | 1014.1 hPa | 0 mm | - | 55 W/m² | - |
| 1777499523 | 17.78° C | 73% | 1014.1 hPa | 0 mm | - | 73 W/m² | - |
| 1777499222 | 17.78° C | 65% | 1014.1 hPa | 0 mm | - | 101 W/m² | - |
| 1777498918 | 18.33° C | 65% | 1013.8 hPa | 0 mm | - | 136 W/m² | - |
| 1777498615 | 18.33° C | 71% | 1013.8 hPa | 0 mm | - | 182 W/m² | - |
| 1777498311 | 18.33° C | 67% | 1013.8 hPa | 0 mm | - | 127 W/m² | - |
| 1777498010 | 18.33° C | 69% | 1013.8 hPa | 0 mm | - | 155 W/m² | - |
| 1777497706 | 18.33° C | 68% | 1013.8 hPa | 0 mm | - | 129 W/m² | - |
| 1777497402 | 17.78° C | 68% | 1013.8 hPa | 0 mm | - | 165 W/m² | - |
| 1777497098 | 17.78° C | 67% | 1014.1 hPa | 0 mm | - | 292 W/m² | - |
| 1777496795 | 17.78° C | 69% | 1014.1 hPa | 0 mm | - | 114 W/m² | - |
| 1777496492 | 18.33° C | 67% | 1014.1 hPa | 0 mm | - | 203 W/m² | - |
| 1777496188 | 18.33° C | 68% | 1014.1 hPa | 0 mm | - | 578 W/m² | - |
| 1777495884 | 18.33° C | 67% | 1014.1 hPa | 0 mm | - | 518 W/m² | - |
| 1777495580 | 17.78° C | 68% | 1014.1 hPa | 0 mm | - | 532 W/m² | - |
| 1777495276 | 17.22° C | 72% | 1014.1 hPa | 0 mm | - | 322 W/m² | - |
* Rain latest hour (hover to see other rain measurements)
** Current wind speed in m/s (hover to see current wind gust speed)